Regional Weather Roundup
Issued by NWS Charleston, WV

Home | Current Version | Previous Version | Graphics & Text | Print | Product List | Glossary On
Versions: 1 2 3 4 5 6 7 8 9 10 11 12 13 14 15 16 17 18 19 20 21 22 23 24 25 26 27 28 29 30 31 32 33 34 35 36 37 38 39 40 41 42 43 44 45 46 47 48 49 50
000
ASUS41 KRLX 010910
RWRRLX
West Virginia Regional Weather Roundup
National Weather Service Charleston WV
500 AM EDT TUE SEP 01 2015

Note: "fair" indicates few or no clouds below 12,000 feet with no
significant weather and/or obstructions to visibility.

WVZ003-011000-
Northern Panhandle of West Virginia

CITY           SKY/WX    TMP DP  RH WIND       PRES   REMARKS
WHEELING       CLEAR     67  65  93 CALM      30.11S FOG
$$

WVZ009-011000-
Northwest West Virginia

CITY           SKY/WX    TMP DP  RH WIND       PRES   REMARKS
PARKERSBURG    CLEAR     67  64  90 CALM      30.13S
$$

WVZ006-011000-
Western West Virginia

CITY           SKY/WX    TMP DP  RH WIND       PRES   REMARKS
HUNTINGTON     FOG       65  65 100 CALM      30.11S VSB 1/2
$$

WVZ015-011000-
West Central West Virginia

CITY           SKY/WX    TMP DP  RH WIND       PRES   REMARKS
CHARLESTON     PTCLDY    65  63  93 CALM      30.12R FOG
$$

WVZ022-031-011000-
North Central West Virginia

CITY           SKY/WX    TMP DP  RH WIND       PRES   REMARKS
CLARKSBURG     PTCLDY    67  66  97 CALM      30.12S FOG
MORGANTOWN     CLEAR     67  62  84 CALM      30.13S HAZE
$$

WVZ025-035-042-045-011000-
Southern West Virginia

CITY           SKY/WX    TMP DP  RH WIND       PRES   REMARKS
BECKLEY        CLEAR     62  59  90 CALM      30.19S
LOGAN          FOG       66  66 100 CALM      30.15S VSB<1/4
BLUEFIELD      CLEAR     65  60  84 W5        30.22R
LEWISBURG      FOG       63  61  94 CALM      30.18F VSB<1/4
$$

WVZ047-011000-
Northern Mountains of West Virginia

CITY           SKY/WX    TMP DP  RH WIND       PRES   REMARKS
ELKINS         PTCLDY    62  59  90 CALM      30.18S
$$

WVZ052-011000-
Eastern Panhandle of West Virginia

CITY           SKY/WX    TMP DP  RH WIND       PRES   REMARKS
MARTINSBURG    CLEAR     64  63  96 CALM      30.07S FOG
PETERSBURG     FOG       63  63  99 CALM      30.12S VSB 1
$$


USA.gov is the U.S. government's official web portal to all federal, state and local government web resources and services.